TimeEST,TemperatureF,Dew PointF,Humidity,Sea Level PressureIn,VisibilityMPH,Wind Direction,Wind SpeedMPH,Gust SpeedMPH,PrecipitationIn,Events,Conditions,WindDirDegrees,DateUTC
12:54 AM,34.0,28.0,79,30.31,10.0,NW,3.5,-,N/A,,Clear,320,2013-01-05 05:54:00
1:54 AM,28.9,27.0,92,30.31,9.0,Calm,Calm,-,N/A,,Clear,0,2013-01-05 06:54:00
2:54 AM,28.0,25.0,88,30.32,10.0,Calm,Calm,-,N/A,,Clear,0,2013-01-05 07:54:00
3:54 AM,28.0,26.1,92,30.32,9.0,Calm,Calm,-,N/A,,Clear,0,2013-01-05 08:54:00
4:54 AM,27.0,25.0,92,30.33,10.0,Calm,Calm,-,N/A,,Clear,0,2013-01-05 09:54:00
5:54 AM,27.0,24.1,89,30.35,10.0,Calm,Calm,-,N/A,,Clear,0,2013-01-05 10:54:00
6:54 AM,27.0,25.0,92,30.35,9.0,Calm,Calm,-,N/A,,Clear,0,2013-01-05 11:54:00
7:54 AM,26.1,24.1,92,30.38,7.0,West,3.5,-,N/A,,Clear,260,2013-01-05 12:54:00
8:54 AM,32.0,28.9,88,30.41,9.0,Calm,Calm,-,N/A,,Clear,0,2013-01-05 13:54:00
9:54 AM,39.0,27.0,62,30.41,10.0,NNW,4.6,-,N/A,,Clear,340,2013-01-05 14:54:00
10:54 AM,45.0,26.1,48,30.41,10.0,North,6.9,-,N/A,,Clear,10,2013-01-05 15:54:00
12:54 PM,48.9,23.0,36,30.33,10.0,ENE,4.6,-,N/A,,Clear,70,2013-01-05 17:54:00
1:54 PM,50.0,26.1,39,30.31,10.0,South,3.5,-,N/A,,Clear,170,2013-01-05 18:54:00
2:54 PM,51.1,28.0,41,30.32,10.0,SSW,5.8,-,N/A,,Clear,210,2013-01-05 19:54:00
3:54 PM,50.0,26.1,39,30.31,10.0,WSW,3.5,-,N/A,,Clear,240,2013-01-05 20:54:00
4:54 PM,48.0,27.0,44,30.32,10.0,SSW,3.5,-,N/A,,Clear,210,2013-01-05 21:54:00
5:54 PM,41.0,32.0,70,30.33,10.0,Calm,Calm,-,N/A,,Clear,0,2013-01-05 22:54:00
6:54 PM,39.0,33.1,79,30.32,10.0,Calm,Calm,-,N/A,,Clear,0,2013-01-05 23:54:00
7:54 PM,36.0,32.0,86,30.32,10.0,Calm,Calm,-,N/A,,Clear,0,2013-01-06 00:54:00
8:54 PM,37.9,32.0,79,30.31,10.0,Calm,Calm,-,N/A,,Clear,0,2013-01-06 01:54:00
9:54 PM,39.0,35.1,86,30.32,10.0,Calm,Calm,-,N/A,,Clear,0,2013-01-06 02:54:00
10:54 PM,39.9,35.1,83,30.31,10.0,Calm,Calm,-,N/A,,Clear,0,2013-01-06 03:54:00
11:54 PM,41.0,36.0,82,30.28,10.0,Calm,Calm,-,N/A,,Partly Cloudy,0,2013-01-06 04:54:00